Flag for U.S.A. Weather past 2 weeks in Kailua-Kona, Hawaii, U.S.A.

Now
77 °F

Overcast.


Feels Like: 79 °F
Forecast: 65 / 78 °F
Wind: 12 mph from Northeast

Location: Keahole Airport

Current Time: May 26, 2015 at 8:24:50 PM

Latest Report: May 26, 2015 at 7:53 PM


Visibility: 10 mi

Pressure: 29.93 "Hg

Humidity: 60%

Dew point: 62 °F

Location of Kailua-KonaLocation

Historic Weather in Kailua-Kona — Graph

°F

Kailua-Kona temperature yesterday

Maximum temperature yesterday: 83 °F (at 1:53 PM)
Minimum temperature yesterday: 72 °F (at 5:53 AM)
Average temperature yesterday: 77 °F

Past Weeks' High & Low Weather Summary

 TemperatureHumidityPressure
High85 °F (May 23, 2:53 PM)84% (May 13, 3:53 AM)30.12 "Hg (May 13, 3:53 AM)
Low70 °F (May 15, 3:53 AM)47% (May 14, 6:53 PM)29.88 "Hg (May 26, 4:53 PM)
Average78 °F65%30.00 "Hg
* Reported May 11 6:53 PM — May 26 6:53 PM, Kailua-Kona, Weather by CustomWeather, © 2015

Note: Actual official high and low records may vary slightly from our data, if they occured in-between our weather recording intervals... More about our weather records

Advertising

Kailua-Kona weather history for previous 24 hours

 ConditionsComfort  
Time TempWeatherWind HumidityBarometerVisibility
6:53 PM
Tue, May 26
76 °FMostly cloudy.6 mph64%29.91 "Hg10 mi
5:53 PM76 °FLight rain. Overcast.9 mph72%29.90 "Hg10 mi
4:53 PM80 °FMostly cloudy.7 mph56%29.88 "Hg10 mi
3:53 PM80 °FMostly cloudy.8 mph58%29.89 "Hg10 mi
2:53 PM81 °FMostly cloudy.9 mph58%29.89 "Hg10 mi
1:53 PM82 °FOvercast.12 mph56%29.91 "Hg10 mi
12:53 PM82 °FPartly sunny.7 mph60%29.92 "Hg10 mi
11:53 AM81 °FOvercast.8 mph62%29.94 "Hg10 mi
10:53 AM80 °FScattered clouds.10 mph64%29.93 "Hg10 mi
9:53 AM79 °FScattered clouds.7 mph67%29.93 "Hg10 mi
8:53 AM78 °FOvercast.8 mph66%29.93 "Hg10 mi
7:53 AM78 °FPassing clouds.6 mph66%29.93 "Hg10 mi
6:53 AM75 °FPartly sunny.6 mph74%29.92 "Hg10 mi
5:53 AM74 °FPartly sunny.5 mph74%29.91 "Hg10 mi
4:53 AM75 °FMostly cloudy.6 mph71%29.90 "Hg10 mi
3:53 AM76 °FLight rain. Mostly cloudy.5 mph67%29.90 "Hg10 mi
2:53 AM76 °FOvercast.7 mph64%29.90 "Hg10 mi
1:53 AM75 °FPartly cloudy.5 mph66%29.90 "Hg10 mi
12:53 AM75 °FPassing clouds.7 mph62%29.92 "Hg10 mi
11:53 PM
Mon, May 25
76 °FMostly cloudy.8 mph58%29.94 "Hg10 mi
10:53 PM75 °FPassing clouds.7 mph60%29.95 "Hg10 mi
9:53 PM76 °FClear.No wind62%29.94 "Hg10 mi
8:53 PM76 °FOvercast.7 mph62%29.94 "Hg10 mi
Weather by CustomWeather, © 2015

See weather overviewHow to use our weather pages